TimeCST,TemperatureF,Dew PointF,Humidity,Sea Level PressureIn,VisibilityMPH,Wind Direction,Wind SpeedMPH,Gust SpeedMPH,PrecipitationIn,Events,Conditions,WindDirDegrees,DateUTC
12:20 AM,33.8,21.2,60,30.13,9.0,NW,19.6,32.2,0.00,Snow,Light Snow,310,2013-03-06 06:20:00
12:51 AM,33.1,19.9,59,30.18,9.0,NW,21.9,34.5,0.00,Snow,Light Snow,320,2013-03-06 06:51:00
1:51 AM,32.0,21.0,64,30.21,9.0,NW,15.0,26.5,0.00,Snow,Light Snow,320,2013-03-06 07:51:00
2:51 AM,32.0,21.0,64,30.21,9.0,NW,15.0,25.3,0.00,Snow,Light Snow,310,2013-03-06 08:51:00
3:26 AM,32.0,21.2,64,30.19,10.0,NW,16.1,24.2,0.00,,Overcast,320,2013-03-06 09:26:00
3:51 AM,32.0,21.0,64,30.23,10.0,NW,18.4,29.9,0.00,,Overcast,320,2013-03-06 09:51:00
4:51 AM,32.0,21.0,64,30.27,9.0,NW,17.3,24.2,0.00,Snow,Light Snow,320,2013-03-06 10:51:00
5:51 AM,30.9,21.9,69,30.30,9.0,NW,16.1,27.6,0.00,Snow,Light Snow,320,2013-03-06 11:51:00
6:51 AM,30.9,21.9,69,30.32,9.0,NW,16.1,25.3,0.00,Snow,Light Snow,320,2013-03-06 12:51:00
7:16 AM,30.2,21.2,69,30.30,10.0,NW,17.3,-,0.00,,Overcast,320,2013-03-06 13:16:00
7:51 AM,30.9,21.0,67,30.35,10.0,NW,13.8,24.2,0.00,,Mostly Cloudy,320,2013-03-06 13:51:00
8:00 AM,32.0,21.2,64,30.33,10.0,NW,15.0,-,N/A,,Mostly Cloudy,320,2013-03-06 14:00:00
8:51 AM,32.0,21.0,64,30.37,10.0,NW,18.4,-,N/A,,Mostly Cloudy,310,2013-03-06 14:51:00
9:16 AM,33.8,21.2,60,30.35,10.0,NW,17.3,25.3,N/A,,Scattered Clouds,320,2013-03-06 15:16:00
9:51 AM,34.0,23.0,64,30.39,10.0,NW,13.8,20.7,N/A,,Scattered Clouds,320,2013-03-06 15:51:00
10:15 AM,33.8,23.0,65,30.36,10.0,NW,12.7,18.4,N/A,,Mostly Cloudy,310,2013-03-06 16:15:00
10:51 AM,35.1,23.0,61,30.40,10.0,NW,13.8,18.4,N/A,,Mostly Cloudy,320,2013-03-06 16:51:00
11:51 AM,36.0,23.0,59,30.39,10.0,WNW,12.7,-,N/A,,Mostly Cloudy,290,2013-03-06 17:51:00
12:51 PM,37.0,21.9,54,30.38,10.0,WNW,8.1,-,N/A,,Mostly Cloudy,300,2013-03-06 18:51:00
1:38 PM,37.4,23.0,56,30.34,10.0,NNW,12.7,-,N/A,,Mostly Cloudy,330,2013-03-06 19:38:00
1:51 PM,37.0,23.0,57,30.37,10.0,NW,11.5,-,N/A,,Mostly Cloudy,310,2013-03-06 19:51:00
2:08 PM,37.4,23.0,56,30.34,10.0,NW,11.5,17.3,N/A,,Mostly Cloudy,320,2013-03-06 20:08:00
2:51 PM,39.0,23.0,53,30.38,10.0,West,11.5,-,N/A,,Mostly Cloudy,280,2013-03-06 20:51:00
3:09 PM,39.2,23.0,52,30.34,10.0,NNW,12.7,19.6,N/A,,Scattered Clouds,330,2013-03-06 21:09:00
3:51 PM,39.0,21.9,50,30.38,10.0,WNW,12.7,18.4,N/A,,Scattered Clouds,290,2013-03-06 21:51:00
4:51 PM,37.0,21.9,54,30.38,9.0,NW,8.1,-,N/A,,Scattered Clouds,320,2013-03-06 22:51:00
5:51 PM,35.1,21.0,57,30.38,10.0,NW,9.2,-,N/A,,Partly Cloudy,310,2013-03-06 23:51:00
6:51 PM,33.1,21.0,61,30.38,10.0,WNW,6.9,-,N/A,,Partly Cloudy,300,2013-03-07 00:51:00
7:51 PM,30.9,21.0,67,30.37,10.0,NNW,5.8,-,N/A,,Clear,330,2013-03-07 01:51:00
8:51 PM,30.0,21.0,69,30.38,10.0,NW,4.6,-,N/A,,Clear,310,2013-03-07 02:51:00
9:51 PM,30.0,21.0,69,30.39,10.0,North,4.6,-,N/A,,Clear,350,2013-03-07 03:51:00
10:51 PM,28.9,21.0,72,30.38,10.0,NNE,4.6,-,N/A,,Clear,20,2013-03-07 04:51:00
11:51 PM,28.0,21.0,75,30.38,10.0,NE,4.6,-,N/A,,Clear,50,2013-03-07 05:51:00